Location: Mahannah Oil Field
(37.4664°N, 96.6003°W)
Time: 16:10:35
(UTC+00:00)

Vanguard 2 Rocket - Pass Details

Date: 26 June 2021
Orbit: 554 x 3325 km, 32.9° (Epoch: 24 July)

Event Time Altitude Azimuth Distance (km) Brightness Sun altitude
Rises 07:20:15 0° 280° (W) 6,595 11.3 -28.0°
Reaches altitude 10° 07:27:17 10° 264° (W) 5,021 10.5 -27.7°
Enters shadow 07:31:12 15° 249° (WSW) 4,264 10.0 -27.5°
